Sidney, MT

2:44 PM MST on February 23, 2017 (GMT -0700)
Sidney-Richland Municipal

Weather History for KSDY - October, 2012

Change the Weather History Date:

Saturday, October 6, 2012

  Actual Average Record
Temperature  
Mean Temperature 32 °F -  
Max Temperature 48 °F 63 °F 85 °F (1920)
Min Temperature 17 °F 33 °F 14 °F (1952)
Degree Days  
Heating Degree Days 32    
Moisture  
Dew Point 20 °F    
Average Humidity 63    
Maximum Humidity 93    
Minimum Humidity 34    
Precipitation  
Precipitation 0.00 in - - ()
Sea Level Pressure  
Sea Level Pressure 30.30 in    
Wind  
Wind Speed 5 mph (SW)    
Max Wind Speed 16 mph    
Max Gust Speed 21 mph    
Visibility 10 miles    
Events      
Averages and records for this station are not official NWS values.
T = Trace of Precipitation, MM = Missing Value Source: NWS Daily Summary

Daily Weather History Graph

Daily Weather History Graph

Search for Another Location

Airport or City:

Trip Planner

Search our weather history database for the weather conditions in past years. The results will help you decide how hot, cold, wet, or windy it might be!

Date:

Astronomy

Oct. 06, 2012 Rise Set
Actual Time 7:03 AM MDT 6:24 PM MDT
Civil Twilight 6:32 AM MDT 6:55 PM MDT
Nautical Twilight 5:57 AM MDT 7:31 PM MDT
Astronomical Twilight 5:20 AM MDT 8:07 PM MDT
Moon 10:23 PM MDT (10/6) 1:19 PM MDT (10/6)
Length of Visible Light 12h 22m
Length of Day
11h 21m
Waning Gibbous, 65% of the Moon is Illuminated
Oct 6
Waning Gibbous
Oct 8
Last Quarter
Oct 15
New
Oct 21
First Quarter
Oct 29
Full

Hourly Weather History & Observations

Time (MDT) Temp. Windchill Dew Point Humidity Pressure Visibility Wind Dir Wind Speed Gust Speed Precip Events Conditions
12:15 AM 24.8 °F - 17.6 °F 74% 30.45 in 10.0 mi Calm Calm - N/A   Clear
12:55 AM 24.8 °F - 17.6 °F 74% 30.45 in 10.0 mi Calm Calm - N/A   Clear
1:15 AM 24.8 °F 20.5 °F 17.6 °F 74% 30.44 in 10.0 mi WNW 3.5 mph - N/A   Clear
1:35 AM 24.8 °F 19.1 °F 17.6 °F 74% 30.44 in 10.0 mi WNW 4.6 mph - N/A   Clear
1:55 AM 23.0 °F - 15.8 °F 74% 30.44 in 10.0 mi Calm Calm - N/A   Clear
2:35 AM 23.0 °F - 15.8 °F 74% 30.44 in 10.0 mi Calm Calm - N/A   Clear
2:55 AM 21.2 °F - 14.0 °F 74% 30.44 in 10.0 mi Calm Calm - N/A   Clear
3:35 AM 21.2 °F - 17.6 °F 86% 30.43 in 10.0 mi Calm Calm - N/A   Clear
3:55 AM 21.2 °F - 15.8 °F 80% 30.43 in 10.0 mi Calm Calm - N/A   Clear
4:15 AM 19.4 °F 14.3 °F 15.8 °F 86% 30.43 in 10.0 mi SW 3.5 mph - N/A   Clear
4:35 AM 19.4 °F - 12.2 °F 74% 30.43 in 10.0 mi Calm Calm - N/A   Clear
4:55 AM 19.4 °F - 14.0 °F 80% 30.43 in 10.0 mi Calm Calm - N/A   Clear
5:15 AM 19.4 °F - 14.0 °F 80% 30.43 in 10.0 mi Calm Calm - N/A   Clear
5:35 AM 19.4 °F - 12.2 °F 74% 30.43 in 10.0 mi Calm Calm - N/A   Clear
5:55 AM 19.4 °F 14.3 °F 15.8 °F 86% 30.43 in 10.0 mi SW 3.5 mph - N/A   Clear
6:15 AM 19.4 °F 14.3 °F 15.8 °F 86% 30.43 in 10.0 mi SSW 3.5 mph - N/A   Clear
6:35 AM 17.6 °F 12.3 °F 14.0 °F 86% 30.43 in 10.0 mi South 3.5 mph - N/A   Clear
6:55 AM 17.6 °F 12.3 °F 14.0 °F 86% 30.43 in 10.0 mi SSW 3.5 mph - N/A   Clear
7:15 AM 17.6 °F - 14.0 °F 86% 30.42 in 10.0 mi Calm Calm - N/A   Clear
7:35 AM 17.6 °F 10.7 °F 15.8 °F 93% 30.42 in 10.0 mi SSW 4.6 mph - N/A   Clear
7:55 AM 19.4 °F 12.8 °F 17.6 °F 93% 30.42 in 10.0 mi South 4.6 mph - N/A   Clear
8:15 AM 21.2 °F 12.6 °F 19.4 °F 93% 30.41 in 10.0 mi South 6.9 mph - N/A   Clear
8:35 AM 24.8 °F 16.9 °F 19.4 °F 80% 30.42 in 10.0 mi South 6.9 mph - N/A   Clear
9:15 AM 26.6 °F 20.0 °F 21.2 °F 80% 30.42 in 10.0 mi South 5.8 mph - N/A   Clear
9:35 AM 28.4 °F 21.2 °F 24.8 °F 86% 30.41 in 10.0 mi South 6.9 mph - N/A   Clear
9:55 AM 30.2 °F 23.4 °F 24.8 °F 80% 30.40 in 10.0 mi South 6.9 mph - N/A   Clear
10:15 AM 33.8 °F 27.0 °F 24.8 °F 70% 30.40 in 10.0 mi South 8.1 mph - N/A   Clear
10:35 AM 35.6 °F 28.6 °F 26.6 °F 70% 30.39 in 10.0 mi South 9.2 mph - N/A   Clear
10:55 AM 37.4 °F 30.3 °F 28.4 °F 70% 30.38 in 10.0 mi South 10.4 mph - N/A   Clear
11:15 AM 39.2 °F 32.5 °F 26.6 °F 61% 30.37 in 10.0 mi South 10.4 mph - N/A   Clear
11:35 AM 42.8 °F 38.0 °F 28.4 °F 57% 30.36 in 10.0 mi South 8.1 mph - N/A   Clear
12:15 PM 44.6 °F 41.4 °F 26.6 °F 49% 30.35 in 10.0 mi SW 5.8 mph - N/A   Partly Cloudy
12:35 PM 44.6 °F 40.7 °F 24.8 °F 46% 30.34 in 10.0 mi WSW 6.9 mph - N/A   Clear
12:55 PM 46.4 °F 41.9 °F 21.2 °F 37% 30.33 in 10.0 mi West 9.2 mph - N/A   Clear
1:15 PM 46.4 °F 41.9 °F 21.2 °F 37% 30.32 in 10.0 mi WSW 9.2 mph - N/A   Partly Cloudy
1:35 PM 46.4 °F 42.4 °F 21.2 °F 37% 30.30 in 10.0 mi WSW 8.1 mph 16.1 mph N/A   Partly Cloudy
1:55 PM 46.4 °F 42.4 °F 21.2 °F 37% 30.29 in 10.0 mi WSW 8.1 mph - N/A   Scattered Clouds
2:15 PM 48.2 °F - 21.2 °F 34% 30.28 in 10.0 mi West 11.5 mph 18.4 mph N/A   Partly Cloudy
2:35 PM 48.2 °F - 21.2 °F 34% 30.27 in 10.0 mi WSW 9.2 mph - N/A   Partly Cloudy
2:55 PM 48.2 °F - 21.2 °F 34% 30.26 in 10.0 mi WSW 16.1 mph 20.7 mph N/A   Scattered Clouds
3:15 PM 48.2 °F - 21.2 °F 34% 30.25 in 10.0 mi SW 13.8 mph 17.3 mph N/A   Scattered Clouds
3:35 PM 48.2 °F - 21.2 °F 34% 30.24 in 10.0 mi West 9.2 mph 19.6 mph N/A   Partly Cloudy
3:55 PM 48.2 °F - 21.2 °F 34% 30.23 in 10.0 mi West 13.8 mph 18.4 mph N/A   Clear
4:15 PM 48.2 °F - 21.2 °F 34% 30.22 in 10.0 mi SW 15.0 mph 19.6 mph N/A   Clear
4:35 PM 48.2 °F - 21.2 °F 34% 30.21 in 10.0 mi WSW 13.8 mph 17.3 mph N/A   Clear
5:15 PM 48.2 °F - 21.2 °F 34% 30.19 in 10.0 mi WSW 13.8 mph - N/A   Clear
5:35 PM 48.2 °F - 21.2 °F 34% 30.19 in 10.0 mi WSW 12.7 mph - N/A   Clear
5:55 PM 46.4 °F 41.5 °F 19.4 °F 34% 30.19 in 10.0 mi WSW 10.4 mph - N/A   Clear
6:15 PM 44.6 °F 40.2 °F 19.4 °F 37% 30.19 in 10.0 mi WSW 8.1 mph - N/A   Clear
6:35 PM 39.2 °F 33.6 °F 21.2 °F 49% 30.18 in 10.0 mi WSW 8.1 mph - N/A   Clear
6:55 PM 39.2 °F 33.0 °F 21.2 °F 49% 30.18 in 10.0 mi WSW 9.2 mph - N/A   Clear
7:15 PM 39.2 °F 33.0 °F 21.2 °F 49% 30.18 in 10.0 mi WSW 9.2 mph - N/A   Clear
7:35 PM 37.4 °F 31.4 °F 21.2 °F 52% 30.17 in 10.0 mi WSW 8.1 mph - N/A   Clear
7:55 PM 35.6 °F 28.6 °F 21.2 °F 56% 30.16 in 10.0 mi WSW 9.2 mph - N/A   Clear
8:15 PM 33.8 °F 27.0 °F 21.2 °F 60% 30.15 in 10.0 mi SSW 8.1 mph - N/A   Clear
8:35 PM 33.8 °F 27.0 °F 21.2 °F 60% 30.15 in 10.0 mi SSW 8.1 mph - N/A   Clear
8:55 PM 32.0 °F 25.6 °F 21.2 °F 64% 30.14 in 10.0 mi SSW 6.9 mph - N/A   Clear
9:15 PM 30.2 °F 22.6 °F 21.2 °F 69% 30.13 in 10.0 mi SW 8.1 mph - N/A   Clear
9:35 PM 32.0 °F 26.4 °F 21.2 °F 64% 30.13 in 10.0 mi SW 5.8 mph - N/A   Clear
9:55 PM 32.0 °F 24.8 °F 21.2 °F 64% 30.12 in 10.0 mi SW 8.1 mph - N/A   Clear
10:15 PM 30.2 °F 23.4 °F 21.2 °F 69% 30.11 in 10.0 mi SW 6.9 mph - N/A   Clear
10:35 PM 30.2 °F 21.9 °F 21.2 °F 69% 30.11 in 10.0 mi SSW 9.2 mph - N/A   Clear
10:55 PM 28.4 °F 21.2 °F 21.2 °F 74% 30.10 in 10.0 mi SSW 6.9 mph - N/A   Clear
11:15 PM 30.2 °F 22.6 °F 23.0 °F 75% 30.09 in 10.0 mi SSW 8.1 mph - N/A   Clear
11:35 PM 30.2 °F 23.4 °F 23.0 °F 75% 30.08 in 10.0 mi SSW 6.9 mph - N/A   Clear
11:55 PM 28.4 °F 22.2 °F 21.2 °F 74% 30.07 in 10.0 mi South 5.8 mph - N/A   Clear